Vorticity
2 2 3 3 2 4 6 4 4 8 8 4 -0 -1 -3 -2 1 4 7 9 9 9 9 9 10 8 7 7 7 8 10 13 13 10 8 10 10 12 12 9 8 8
2 3 4 3 2 4 7 5 3 4 9 8 3 1 -1 -2 1 4 7 11 9 7 7 9 8 7 6 7 8 8 10 12 13 10 9 10 11 12 12 9 7 8
0 2 3 4 3 4 5 5 4 2 5 8 5 3 1 0 3 5 7 11 10 7 7 8 7 6 6 7 8 9 10 12 13 10 9 11 12 11 10 8 6 6
2 3 4 4 5 5 5 6 6 2 2 4 4 3 2 2 6 7 7 10 11 8 8 7 6 6 7 7 9 10 11 13 13 10 10 11 10 9 7 4 3 5
8 7 7 7 6 6 6 8 8 4 1 1 2 2 3 5 8 8 6 9 11 10 9 8 7 7 8 9 10 11 11 13 14 12 12 12 10 8 5 2 2 3
11 10 9 7 6 7 8 8 7 4 2 2 2 3 6 9 10 7 6 8 11 11 11 9 8 8 8 9 10 11 12 13 14 14 13 11 9 6 6 5 5 4
10 8 7 6 6 7 7 7 6 4 3 2 3 6 9 9 9 7 6 9 11 10 10 11 10 9 9 10 12 14 14 14 14 12 11 8 6 5 4 3 4 6
7 5 5 6 6 7 7 7 7 4 3 4 6 8 8 8 7 7 9 12 10 7 9 12 11 10 11 12 15 16 15 14 13 10 9 7 6 5 2 2 6 8
6 5 5 6 6 7 8 7 6 4 5 6 8 7 6 7 8 9 11 10 6 6 11 14 11 11 13 14 16 17 15 13 11 9 8 6 3 1 1 4 8 9
6 6 6 6 7 8 7 6 5 5 7 8 6 5 6 7 8 8 8 6 5 9 14 13 11 12 14 15 16 15 13 11 9 8 7 5 3 3 5 8 11 13
6 6 6 6 7 7 5 5 6 7 8 6 4 4 5 6 6 6 6 6 8 13 14 13 12 13 14 14 15 14 11 9 8 7 6 5 6 7 9 12 16 18
6 6 5 7 7 6 5 7 8 7 5 3 3 5 5 6 6 6 6 8 11 14 13 12 12 13 13 14 13 10 8 7 6 5 6 8 10 12 14 18 20 17
7 6 7 9 8 6 7 9 7 4 3 4 5 6 7 8 8 6 7 10 12 12 11 12 11 10 9 8 6 5 6 7 7 8 11 14 17 18 18 20 17 12
7 7 10 10 7 7 8 7 4 3 5 7 7 8 9 9 6 6 9 12 13 12 11 9 8 8 9 10 11 11 11 11 13 16 18 19 19 18 17 15 12 10
8 11 12 8 5 6 6 4 3 6 8 8 8 8 7 5 4 8 13 14 12 10 9 9 11 14 15 17 17 16 17 17 18 19 18 17 15 14 14 13 11 11
11 12 9 5 3 4 5 5 6 8 9 9 7 5 2 4 8 13 16 15 14 14 15 17 19 19 19 21 21 20 21 20 18 17 16 14 13 13 13 12 13 14
11 8 6 3 2 4 8 9 9 8 8 7 4 2 4 9 14 16 16 16 17 17 18 19 19 20 24 25 23 21 19 16 16 16 15 13 12 12 11 10 8 9
7 6 6 4 4 8 12 11 8 7 5 4 3 4 9 14 16 16 16 17 15 14 15 16 16 19 24 23 21 19 17 17 19 17 13 12 8 4 11 17 12 8
7 6 4 4 7 11 12 9 6 4 3 3 5 8 13 16 16 16 16 16 13 13 15 15 14 19 21 20 21 19 14 14 15 12 11 10 2 -2 9 19 16 10
9 5 3 6 10 11 8 5 3 3 3 6 11 15 19 19 17 15 14 12 9 10 13 14 17 19 18 21 22 14 5 5 7 9 10 4 -1 3 13 19 19 14
7 5 6 10 9 5 3 3 3 5 9 14 18 20 20 17 14 13 11 9 10 13 17 20 20 15 17 28 23 2 -3 4 3 2 4 2 2 11 17 21 24 21
6 7 10 9 5 2 3 5 7 12 16 18 19 19 17 15 13 12 12 13 14 17 21 21 16 13 20 26 10 -10 -4 8 2 -4 3 9 13 17 18 20 23 22
7 9 7 4 3 3 6 10 16 20 19 18 19 19 15 13 12 13 17 18 13 14 20 19 14 15 16 9 -3 -4 7 11 4 4 11 16 17 15 17 22 24 22
8 6 3 3 5 9 15 23 25 22 20 18 15 11 8 10 13 18 23 17 4 6 19 20 15 14 9 3 8 18 20 14 11 13 15 16 15 14 18 25 26 20
5 3 4 7 12 18 23 23 17 11 8 3 -2 -0 7 14 17 17 16 9 2 9 21 20 14 12 10 12 20 23 19 16 13 11 12 14 14 14 20 25 23 15
4 7 12 17 20 21 20 16 12 9 3 -3 -1 8 15 16 14 12 12 11 14 20 21 16 15 16 16 18 19 14 10 10 8 8 13 14 12 14 19 22 21 15
Height
5710 5708 5706 5704 5702 5699 5697 5694 5692 5690 5687 5684 5681 5679 5678 5676 5673 5671 5668 5666 5664 5662 5660 5658 5656 5654 5652 5650 5648 5646 5645 5643 5641 5640 5638 5637 5636 5635 5633 5632 5631 5630
5705 5703 5701 5698 5696 5694 5692 5689 5687 5684 5682 5680 5677 5674 5672 5670 5668 5666 5663 5661 5658 5656 5654 5652 5650 5648 5646 5644 5642 5640 5639 5637 5635 5633 5632 5630 5629 5628 5627 5626 5625 5623
5700 5698 5695 5692 5690 5688 5686 5684 5681 5678 5676 5675 5672 5669 5666 5664 5662 5660 5657 5655 5653 5650 5648 5646 5644 5642 5640 5638 5636 5634 5633 5631 5629 5627 5625 5624 5622 5621 5620 5619 5618 5617
5695 5692 5690 5687 5685 5682 5680 5678 5675 5673 5670 5668 5666 5663 5660 5658 5656 5653 5651 5649 5646 5644 5642 5640 5638 5635 5633 5631 5629 5627 5626 5624 5622 5621 5619 5617 5616 5615 5614 5612 5611 5610
5690 5687 5684 5682 5679 5676 5674 5672 5669 5666 5664 5662 5660 5657 5654 5652 5649 5647 5644 5642 5640 5638 5636 5633 5631 5628 5626 5624 5622 5620 5619 5617 5615 5614 5612 5611 5609 5608 5606 5605 5604 5603
5684 5681 5679 5676 5673 5670 5668 5665 5662 5660 5657 5655 5653 5651 5648 5645 5643 5640 5638 5635 5633 5631 5629 5626 5624 5622 5619 5617 5615 5613 5611 5610 5608 5606 5605 5604 5602 5601 5599 5598 5597 5595
5678 5675 5673 5670 5667 5664 5661 5659 5656 5653 5651 5649 5646 5643 5641 5638 5636 5633 5631 5628 5626 5624 5622 5619 5617 5614 5612 5610 5608 5606 5604 5602 5600 5599 5598 5596 5595 5593 5592 5590 5589 5587
5671 5669 5666 5663 5660 5658 5655 5652 5649 5647 5644 5642 5639 5636 5634 5631 5629 5626 5624 5621 5619 5617 5614 5612 5609 5607 5605 5603 5600 5598 5597 5595 5593 5592 5590 5589 5587 5585 5584 5582 5581 5579
5665 5662 5659 5656 5654 5651 5648 5645 5643 5640 5637 5635 5632 5629 5627 5624 5621 5619 5616 5614 5611 5609 5606 5604 5602 5599 5597 5595 5593 5591 5589 5587 5586 5584 5582 5581 5579 5577 5575 5574 5572 5570
5658 5655 5653 5650 5647 5644 5641 5639 5636 5633 5630 5628 5625 5622 5620 5617 5614 5611 5609 5606 5604 5601 5598 5596 5594 5592 5589 5587 5585 5583 5581 5580 5578 5576 5574 5573 5571 5569 5567 5565 5563 5562
5652 5649 5646 5643 5640 5637 5635 5632 5629 5626 5623 5621 5618 5615 5612 5609 5606 5604 5601 5598 5596 5593 5591 5589 5586 5584 5581 5579 5577 5575 5573 5572 5570 5568 5566 5564 5562 5560 5559 5557 5555 5553
5645 5642 5640 5637 5634 5631 5628 5624 5622 5619 5616 5613 5611 5608 5605 5602 5599 5596 5593 5591 5588 5586 5583 5581 5578 5576 5574 5571 5569 5567 5565 5563 5561 5559 5557 5555 5553 5552 5550 5548 5546 5544
5638 5635 5632 5629 5626 5624 5621 5618 5615 5612 5609 5606 5603 5600 5597 5594 5592 5589 5586 5583 5581 5578 5576 5573 5571 5568 5566 5563 5561 5559 5556 5554 5552 5550 5548 5546 5544 5543 5541 5539 5537 5535
5631 5628 5625 5622 5619 5617 5613 5611 5608 5604 5602 5599 5596 5593 5590 5587 5585 5582 5579 5576 5573 5571 5568 5565 5563 5560 5558 5555 5552 5550 5547 5545 5543 5540 5539 5537 5535 5534 5532 5530 5529 5527
5623 5620 5618 5615 5612 5609 5606 5603 5600 5597 5594 5591 5588 5586 5583 5580 5577 5574 5571 5568 5565 5563 5560 5557 5554 5552 5549 5547 5544 5541 5538 5536 5534 5532 5530 5528 5527 5525 5524 5522 5521 5519
5615 5613 5610 5607 5604 5601 5598 5595 5592 5589 5586 5584 5581 5578 5575 5572 5569 5566 5562 5560 5557 5554 5551 5549 5546 5543 5541 5538 5535 5532 5530 5528 5525 5524 5522 5520 5519 5517 5516 5514 5513 5512
5608 5605 5602 5599 5596 5593 5591 5588 5585 5582 5579 5575 5572 5569 5566 5563 5560 5557 5554 5551 5548 5545 5543 5540 5537 5535 5532 5530 5527 5524 5522 5520 5518 5516 5514 5512 5511 5509 5508 5507 5506 5505
5601 5598 5595 5591 5588 5585 5583 5580 5577 5574 5570 5567 5564 5560 5557 5554 5551 5548 5545 5542 5539 5537 5534 5532 5529 5526 5524 5522 5519 5517 5514 5512 5510 5508 5507 5505 5504 5503 5501 5500 5498 5497
5593 5590 5587 5584 5581 5578 5575 5572 5569 5565 5562 5558 5555 5551 5548 5545 5541 5538 5536 5533 5531 5528 5525 5523 5520 5518 5516 5514 5511 5509 5507 5505 5503 5501 5500 5498 5497 5496 5494 5492 5491 5489
5585 5582 5579 5576 5573 5570 5567 5564 5560 5557 5553 5549 5546 5542 5539 5536 5532 5530 5527 5524 5522 5519 5517 5515 5512 5510 5508 5506 5504 5502 5500 5498 5496 5495 5493 5492 5490 5488 5486 5484 5483 5481
5577 5574 5571 5568 5565 5561 5558 5555 5551 5547 5544 5540 5537 5533 5530 5527 5524 5521 5519 5516 5514 5511 5509 5507 5504 5502 5501 5499 5497 5495 5494 5492 5490 5488 5487 5485 5482 5480 5478 5476 5475 5473
5569 5566 5563 5560 5556 5553 5549 5546 5542 5538 5534 5530 5527 5524 5521 5518 5516 5513 5511 5508 5506 5504 5501 5499 5497 5495 5494 5492 5491 5489 5488 5486 5483 5481 5480 5478 5475 5473 5471 5469 5467 5466
5561 5558 5555 5551 5548 5544 5540 5536 5532 5528 5524 5521 5518 5515 5512 5510 5507 5505 5502 5500 5498 5496 5493 5492 5490 5488 5487 5486 5484 5482 5480 5478 5476 5474 5473 5470 5468 5466 5464 5462 5460 5459
5552 5549 5546 5542 5538 5534 5530 5527 5523 5519 5516 5512 5509 5506 5504 5501 5499 5497 5495 5492 5490 5488 5486 5484 5482 5481 5479 5478 5475 5474 5473 5471 5469 5468 5466 5463 5461 5459 5457 5456 5454 5453
5543 5539 5536 5532 5528 5524 5521 5518 5515 5511 5508 5504 5501 5498 5495 5493 5491 5489 5487 5485 5482 5480 5478 5477 5475 5473 5471 5469 5467 5467 5466 5464 5462 5461 5459 5457 5455 5453 5451 5450 5448 5448
5533 5529 5526 5522 5518 5514 5511 5508 5506 5503 5499 5496 5492 5490 5487 5485 5483 5481 5479 5476 5474 5472 5470 5469 5467 5465 5463 5462 5461 5460 5458 5457 5455 5454 5452 5450 5448 5447 5445 5444 5443 5442